Location: Bern�tre
(50.1974°N, 2.0915°E)
Time: 09:30:49
(UTC+00:00)

NOSS 3-1 (A) - Pass Details

Date: 18 September 2020
Orbit: 745 x 1467 km, 63.4° (Epoch: 08 October)

Event Time Altitude Azimuth Distance (km) Brightness Sun altitude
Rises 18:53:51 0° 247° (WSW) 3,334 7.2 -9.7°
Reaches altitude 10° 18:56:13 10° 253° (WSW) 2,474 6.6 -10.1°
Maximum altitude 19:01:44 47° 328° (NNW) 1,234 4.4 -10.9°
Drops below altitude 10° 19:08:17 10° 41° (NE) 2,928 5.8 -11.9°
Sets 19:11:20 0° 47° (NE) 4,009 6.4 -12.4°
